Location: Unspecified
(0.0000°N, 0.0000°E)
Time: 04:43:52
(UTC+00:00)

Hubble Space Telescope - Pass Details

Date: 17 April 2019
Orbit: 536 x 540 km, 28.5° (Epoch: 16 June)

Event Time Altitude Azimuth Distance (km) Brightness Sun altitude
Exits shadow 04:17:25 50° 28° (NNE) 685 1.4 -25.1°
Drops below altitude 10° 04:20:39 10° 52° (NE) 1,782 4.3 -24.3°
Sets 04:22:55 0° 55° (NE) 2,671 5.4 -23.8°
